Tracking 26492 objects as of 8-Dec-2022
HD Live streaming from Space Station
objects crossing your sky now

COSMOS 1375 DEB

Track COSMOS 1375 DEB now!
10-day predictions


NORAD ID: 17807
Int'l Code: 1982-055AZ
Perigee: 924.6 km
Apogee: 1,020.8 km
Inclination: 65.8 °
Period: 104.4 minutes
Semi major axis: 7343 km
RCS: 0.033 m2 (small)
Launch date: June 6, 1982
Source: Commonwealth of Independent States (former USSR) (CIS)
Launch site: PLESETSK MISSILE AND SPACE COMPLEX (PKMTR)

Note: This is SATELLITE DEBRIS
aabbcc
Your satellite tracking list
Your tracking list is empty




NASA's NSSDC Master Catalog

Two Line Element Set (TLE):
1 17807U 82055AZ  22341.46506796  .00000818  00000-0  85875-3 0  9991
2 17807  65.8321  77.4043 0065496 243.8341 199.6869 13.79526078861663
Source of the keplerian elements: AFSPC